Погода в Добруше

Беларусь     52°25′16″N   31°18′59″E
темп.,
°C
ветер,
м/с
пор.,
м/с
влажн.,
%
обл.,
%
осадки,
мм/ч
давл.,
гПа
погр.,
м
14 мая, пт
пт1400:00+10юв51185100 0.1 1011299
03:00+11ююв51277100 0.1 1011445
06:00+11юв61394100 0.6 1010448
09:00+13вюв61280100 2.3 1010549
12:00+18юв686599 0.0 10081041
15:00+20ююв686196 0.6 10061585
18:00+19ю357260 1.0 1006637
21:00+14ю338812 2.1 100630
15 мая, сб
сб1500:00+12ю34940 0.5 100660
03:00+10ю359633 0.6 100794
06:00+11ююв359545 0.0 1007101
09:00+13ю5891100 0.1 1008486
12:00+14ююз7108697 0.4 1008777
15:00+16юз7976100 0.6 1009873
18:00+17юз467029 0.0 1009917
21:00+12ю348913 0.1 101053
16 мая, вс
вс1600:00+11ююз49965 0.0 1010182
03:00+10ююз489942 0.0 1011183
06:00+10ююз369872 0.0 1012157
09:00+14ююз348550 0.0 1013394
12:00+18ю236477 0.2 10131305
15:00+19ю236184 0.3 1012987
18:00+20в2363100 0.0 1011584
21:00+14вюв3484100 0.0 101162
17 мая, пн
пн1700:00+13вюв3488100 0.0 101146
03:00+12вюв359299 0.0 101171
06:00+12в3791100 0.0 1009143
09:00+18в3675100 0.0 1008313
12:00+18св2381100 0.6 1006534
15:00+18зюз4591100 3.0 1004254
18:00+14з4897100 4.4 1005358
21:00+13з369748 4.4 1007223
18 мая, вт
вт1800:00+11зюз359723 0.0 1008104
03:00+12з369892 0.0 1009186
06:00+11зсз2595100 0.0 1010156
09:00+15сз34782 0.1 1011564
12:00+18сз33600 0.0 10111091
15:00+20ссз225440 0.0 10101400
18:00+20всв11565 0.0 10101035
21:00+14вюв33743 0.0 101024